Back to catalog

STARLINK-35531

AliveCommunicationsVLEO
NORAD 66112·PAYLOAD·🇺🇸 United States

Launched Oct 19, 2025 from Vandenberg Space Force Base

Loading…

Next Passes (next 24 hours)

TLE

FreshSource: CelesTrak SupGP

Epoch: Sep 14, 2026, 20:53 UTC

1 66112C 25236AC  26257.87062500 -.00002593  00000+0 -76658-4 0  2577
2 66112  53.1574 303.7452 0001279 101.4716  83.8544 15.34366609    12

Track STARLINK-35531 in real time with AllMySat

Download on the App Store